This is the latest recevied weather packets stored in our database for station/object G1OCN-WX. If no packets are shown the sender has not sent any weather packets the latest 10 day(s).
| Time | Temp. | Humidity | Pressure | Rain* | Wind** | Luminosity | Snow |
|---|---|---|---|---|---|---|---|
| 1787805267 | 18.33° C | 88% | 1006.8 hPa | 0 mm | - | - | - |
| 1787804366 | 18.33° C | 88% | 1006.8 hPa | 0 mm | - | - | - |
| 1787803466 | 18.33° C | 89% | 1006.8 hPa | 0 mm | - | - | - |
| 1787802566 | 18.33° C | 89% | 1006.6 hPa | 0.25 mm | - | - | - |
| 1787801666 | 18.33° C | 89% | 1006.6 hPa | 4.06 mm | - | - | - |
| 1787800766 | 18.33° C | 89% | 1006.5 hPa | 6.35 mm | - | - | - |
| 1787799866 | 18.89° C | 89% | 1006.9 hPa | 16.26 mm | - | - | - |
| 1787798966 | 18.89° C | 88% | 1007.4 hPa | 18.8 mm | - | - | - |
| 1787798066 | 18.89° C | 88% | 1007.7 hPa | 14.99 mm | - | - | - |
| 1787797166 | 18.89° C | 87% | 1008.1 hPa | 12.7 mm | - | - | - |
| 1787796265 | 19.44° C | 85% | 1008.5 hPa | 2.79 mm | - | - | - |
| 1787795365 | 19.44° C | 85% | 1007.7 hPa | 0 mm | - | - | - |
| 1787794465 | 19.44° C | 84% | 1007.5 hPa | 0 mm | - | - | - |
| 1787793565 | 19.44° C | 86% | 1007.5 hPa | 0 mm | - | - | - |
| 1787792665 | 19.44° C | 87% | 1007.7 hPa | 0 mm | - | - | - |
| 1787791765 | 19.44° C | 88% | 1008 hPa | 0.25 mm | - | - | - |
| 1787790865 | 19.44° C | 88% | 1008 hPa | 0.25 mm | - | - | - |
| 1787789965 | 19.44° C | 88% | 1008 hPa | 0.25 mm | - | - | - |
| 1787789065 | 19.44° C | 88% | 1008.3 hPa | 0.25 mm | - | - | - |
| 1787788164 | 19.44° C | 87% | 1008.3 hPa | 0 mm | - | - | - |
| 1787787264 | 19.44° C | 87% | 1008.4 hPa | 0 mm | - | - | - |
| 1787786364 | 19.44° C | 86% | 1008.7 hPa | 0 mm | - | - | - |
| 1787785464 | 19.44° C | 85% | 1009.2 hPa | 0 mm | - | - | - |
| 1787784564 | 19.44° C | 83% | 1009.6 hPa | 0 mm | - | - | - |
| 1787783664 | 19.44° C | 81% | 1009.3 hPa | 0 mm | - | - | - |
* Rain latest hour (hover to see other rain measurements)
** Current wind speed in m/s (hover to see current wind gust speed)